LPHRLPPD

Guest
Details From LPHR - HORTA
To LPPD - PONTA DELGADA
Flight Number -
Tags generated
Created
Modified
Stats Distance 150 nm / 278 km
Max Altitude 17,500 ft / 5,334 m
Waypoints 3
Social Downloads 7
Likes 0
Share VATSIM

Download

Looking for another format? Having issues loading an existing format? Contact us
Advertisement - Login to hide

Notes

Basic altitude profile: - Ascent Rate: 6000ft/min - Ascent Speed: 250kts - Cruise Altitude: 16000ft - Cruise Speed: 420kts - Descent Rate: 1500ft/min - Descent Speed: 250kts Options: - Use NATs: yes - Use PACOTS: yes - Use low airways: no - Use high airways: yes

Route

LPHR SOMUL LPPD

ID Type Via Altitude (ft/m) Position (lat/lon) Dist (leg/tot) Name
O LPHR APT - 0 / 0 38.51990 / -28.71579 - / 0 nm HORTA
SOMUL FIX - 17,500 / 5,334 38.22250 / -27.31694 68 / 68 nm
O LPPD APT - 0 / 0 37.74208 / -25.69774 81 / 150 nm PONTA DELGADA

Altitude Profile

Advertisement - Login to hide

LPHR

Details ICAO LPHR (HOR)
Name HORTA
Region Portugal
Timezone Atlantic/Azores (UTC-1.0)
Stats Elevation 117 ft / 36 m (AMSL)
Location 38.519900° -28.715900°
Runways 1
Magnetic Variation 9.365° W

METAR

LPHR 111130Z 19014KT 9999 FEW025 17/10 Q1025

Decode

TAF

Not found

Departure Runways

ID Width Length Bearing (true/mag) Surface Threshold Overrun Markings Lighting
08 148 ft / 45 m 5,226 ft / 1,593 m 89.64° / 99.01° ASPHALT 0 ft / 0 m 0 ft / 0 m PREC-APP CENTERLINE EDGE THRESHOLD MALSF
26 148 ft / 45 m 5,226 ft / 1,593 m 269.65° / 279.02° ASPHALT 0 ft / 0 m 0 ft / 0 m PREC-APP CENTERLINE EDGE THRESHOLD MALSF

LPPD

Details ICAO LPPD (PDL)
Name PONTA DELGADA
Region Portugal
Timezone Atlantic/Azores (UTC-1.0)
Stats Elevation 257 ft / 78 m (AMSL)
Location 37.742000° -25.697500°
Runways 1
Magnetic Variation 8.222° W

METAR

LPPD 111130Z 11003KT 050V160 9999 FEW018 16/10 Q1028

Decode

TAF

TAF LPPD 110500Z 1106/1206 01010KT 9999 SCT018 BECMG 1108/1111 15008KT BECMG 1114/1117 19015KT SCT012 BKN030 PROB30 TEMPO 1117/1201 5000 -RADZ BR FEW006 BKN012 BECMG 1122/1201 22020KT SCT008 BKN015 TEMPO 1201/1206 22025G35KT 3000 RADZ BR SCT004 BKN008

Decode

Destination Runways

ID Width Length Bearing (true/mag) Surface Threshold Overrun Markings Lighting
12 148 ft / 45 m 8,257 ft / 2,517 m 111.64° / 119.86° ASPHALT 92 ft / 28 m 361 ft / 110 m PREC-APP CENTERLINE EDGE THRESHOLD ALSF-II
30 148 ft / 45 m 8,257 ft / 2,517 m 291.65° / 299.87° ASPHALT 784 ft / 239 m 0 ft / 0 m PREC-APP CENTERLINE EDGE THRESHOLD ALSF-II

Approach Navaids

Runway Type Ident Frequency Range Bearing (true/mag) Slope Elevation
30 DME NL 109.50 MHz 18 nm / 33 km - - 259 ft / 79 m (AMSL)
30 LOC-ILS NL 109.50 MHz 18 nm / 33 km 291.78° / 300.00 ° - 259 ft / 79 m (AMSL)
30 GS NL 109.50 MHz 10 nm / 19 km 292.56° / 300.78 ° 3.00° 259 ft / 79 m (AMSL)

Popular Alternatives